FW5732 Weather Reports


Display with metric or nautical units.
time (UTC)temp
F
wind
direction
speed
MPH
gust
MPH
rain 1hr
in
rain 24hr
in
rain mn
in
humidity
%
barometer
mb
20260506090537 63 0.0 0.0 0.00 0.00 0.00 68 1006.9
20260506085556 63 0.0 0.0 0.00 0.00 0.00 69 1006.8
20260506084537 62 0.0 0.0 0.00 0.00 0.00 71 1006.8
20260506083616 61 0.0 0.0 0.00 0.00 0.00 72 1006.7
20260506081516 59 0.0 0.0 0.00 0.00 0.00 76 1006.6
20260506080537 59 0.0 0.0 0.00 0.00 0.00 77 1006.7
20260506072516 58 0.0 0.0 0.00 0.00 0.00 80 1007.1
20260506071516 57 0.0 0.0 0.00 0.00 0.00 82 1007.0
20260506070556 56 0.0 0.0 0.00 0.00 0.00 84 1006.9
20260506062516 54 0.0 0.0 0.00 0.00 0.00 88 1006.7
20260506061536 53 0.0 0.0 0.00 0.00 0.00 89 1006.6
20260506060516 52 0.0 0.0 0.00 0.00 0.00 89 1006.7
20260506050516 47 0.0 0.0 0.00 0.00 0.00 92 1006.4
20260506044516 46 0.0 0.0 0.00 0.00 0.00 92 1006.4
20260506043536 46 0.0 0.0 0.00 0.00 0.00 91 1006.5
20260506042519 46 0.0 0.0 0.00 0.00 0.00 92 1006.8
20260506041656 46 0.0 0.0 0.00 0.00 0.00 91 1006.8
20260506040515 46 0.0 0.0 0.00 0.00 0.00 91 1006.7
20260506035516 46 0.0 0.0 0.00 0.00 0.00 91 1006.9
20260506034515 46 0.0 0.0 0.00 0.00 0.00 91 1006.9
20260506033556 46 0.0 0.0 0.00 0.00 0.00 91 1007.0